Regional Weather Roundup
Issued by NWS

Home | Current Version | Previous Version | Graphics & Text | Print | Product List | Glossary Off
Versions: 1 2 3 4 5 6 7 8 9 10 11 12 13 14 15 16 17 18 19 20 21 22 23 24 25 26 27 28 29 30 31 32 33 34 35 36 37 38 39 40 41 42 43 44 45 46 47 48 49 50

000
ASUS43 KTOP 222159
RWRKS

WEATHER ROUNDUP FOR KANSAS
NATIONAL WEATHER SERVICE GOODLAND KS
500 PM CDT WED OCT 22 2014

NOTE:  "FAIR" INDICATES FEW OR NO CLOUDS BELOW 12,000 FEET WITH NO
SIGNIFICANT WEATHER AND/OR OBSTRUCTIONS TO VISIBILITY.

KSZ001>006-013>018-027>032-041>047-222300-
NORTHWEST KANSAS

CITY           SKY/WX    TMP DP  RH WIND       PRES   REMARKS
GOODLAND       SUNNY     73  45  36 NE6       30.03R
HAYS           CLOUDY    70  54  56 S22       29.99S
HILL CITY      CLOUDY    72  57  59 VRB6G21   29.96S THUNDER
RUSSELL        CLOUDY    67  55  65 S24       29.99S
$$

KSZ061>065-074>080-084>089-222300-
SOUTHWEST KANSAS

CITY           SKY/WX    TMP DP  RH WIND       PRES   REMARKS
DODGE CITY     CLOUDY    65  55  70 S17       30.02S
ELKHART          N/A     77  51  40 SW5         N/A
GARDEN CITY    PTSUNNY   73  55  53 S18G26    29.98S
GREAT BEND     CLOUDY    66  55  68 S15       30.03R
LIBERAL        MOSUNNY   73  57  56 S21       30.02S
$$

KSZ066>073-081>083-090>101-222300-
SOUTHEAST KANSAS

CITY           SKY/WX    TMP DP  RH WIND       PRES   REMARKS
CHANUTE        SUNNY     76  57  51 S12       30.09F
COFFEYVILLE    SUNNY     76  57  51 S12       30.08F
HUTCHINSON     CLOUDY    75  50  41 S15       30.02F
NEWTON         MOSUNNY   73  52  46 S15G22    30.06F
PARSONS        SUNNY     77  58  51 S8        30.10F
WICHITA INTL   PTSUNNY   76  52  43 S22       30.04S
WICHITA JABRA  MOSUNNY   75  53  46 S16G24    30.04F
WINFIELD       MOSUNNY   75  57  53 S13       30.06F
$$

KSZ007>012-019>026-033>040-048>060-102>105-222300-
NORTHEAST KANSAS

CITY           SKY/WX    TMP DP  RH WIND       PRES   REMARKS
CONCORDIA      CLOUDY    74  53  48 S16G25    29.99S
EMPORIA        LGT RAIN  75  55  49 S16G25    30.06S
LAWRENCE       SUNNY     74  56  53 SE13      30.07F
MANHATTAN      MOSUNNY   77  55  46 SW16G23   30.01F
OLATHE IND     SUNNY     72  57  59 S12       30.10F
OLATHE EXE     SUNNY     71  57  61 S12       30.09F
SALINA         PTSUNNY   75  52  44 S15G21    30.01F
TOPEKA BILLARD SUNNY     77  59  53 SE13      30.05F
TOPEKA FORBES  MOSUNNY   77  56  48 S9G18     30.05F
$$



USA.gov is the U.S. government's official web portal to all federal, state and local government web resources and services.